Location: St. Louis
(38.6270°N, 90.1994°W)
Time: 14:06:22
(UTC-06:00)

ISS - Pass Details

Date: 05 August 2017
Orbit: 402 x 407 km, 51.6° (Epoch: 13 December)

Event Time Altitude Azimuth Distance (km) Brightness Sun altitude
Rises 22:12:06 0° 316° (NW) 2,319 1.6 -21.2°
Reaches altitude 10° 22:14:25 10° 330° (NNW) 1,457 0.0 -21.6°
Enters shadow 22:17:07 25° 26° (NNE) 864 -2.0 -21.9°
